Regional Weather Roundup
Issued by NWS

Home | Current Version | Previous Version | Text Only | Print | Product List | Glossary On
Versions: 1 2 3 4 5 6 7 8 9 10 11 12 13 14 15 16 17 18 19 20 21 22 23 24 25 26 27 28 29 30 31 32 33 34 35 36 37 38 39 40 41 42 43 44 45 46 47 48 49 50
000
ASUS43 KMKX 131720
RWRWI

WISCONSIN REGIONAL WEATHER ROUNDUP
NATIONAL WEATHER SERVICE MILWAUKEE/SULLIVAN WI
1100 AM CST WED DEC 13 2017

NOTE: "FAIR" INDICATES FEW OR NO CLOUDS BELOW 12,000 FEET WITH NO
SIGNIFICANT WEATHER AND/OR OBSTRUCTIONS TO VISIBILITY.

WIZ001-002-006>008-014>016-023>028-131800-
NORTHWEST WISCONSIN

CITY           SKY/WX    TMP DP  RH WIND       PRES   REMARKS
SUPERIOR ARPT  CLOUDY    21  17  84 CALM      29.58R
ASHLAND        LGT SNOW  17  12  80 NE8       29.57R WCI   7
HAYWARD        FLURRIES  18  11  74 NE10      29.51R WCI   6
SIREN          CLOUDY    19  14  81 N13       29.54R WCI   6
CUMBERLAND     CLOUDY    19  14  79 N7        29.47R WCI  10
RICE LAKE      CLOUDY    21  16  82 N9        29.49R WCI  10
CHETEK         CLOUDY    20  15  79 NE6       29.47R WCI  13
LADYSMITH      LGT SNOW  17  13  82 NE9       29.46R WCI   6
EAU CLAIRE     CLOUDY    22  17  81 N8        29.45R WCI  12
MENOMONIE      CLOUDY    24  19  83 NW8       29.46R WCI  15
NEW RICHMOND   CLOUDY    22  18  83 NW18      29.50R WCI   8
OSCEOLA        CLOUDY    22  18  84 NW12G17   29.54S WCI  11
$$

WIZ003>005-009-010-017-018-131800-
NORTH CENTRAL WISCONSIN

CITY           SKY/WX    TMP DP  RH WIND       PRES   REMARKS
MANITOWISH WTR LGT SNOW  12  10  89 NE8       29.47R VSB 1   WCI   1
ARBOR VITAE    LGT SNOW  14  10  85 E6        29.45S VSB 1   WCI   5
WOODRUFF       LGT SNOW  14  10  85 E6        29.45S VSB 1   WCI   5
RHINELANDER    SNOW      13  10  88 NE9       29.44S VSB 1/2 WCI   1
EAGLE RIVER    LGT SNOW  13   8  81 NE7       29.46S VSB 1   WCI   2
LAND O LAKES   LGT SNOW  13   9  85 E6        29.49F VSB 3/4 WCI   4
PHILLIPS       LGT SNOW  13  10  87 NE8       29.44S VSB 1   WCI   1
TOMAHAWK       LGT SNOW  14  10  87 NE3       29.43F VSB 1
MEDFORD        SNOW      14  10  85 NE9       29.39F VSB 1/2 WCI   2
MERRILL        LGT SNOW  16  13  89 N6        29.43F WCI   7
$$

WIZ029-030-035-036-043>047-131800-
CENTRAL WISCONSIN

CITY           SKY/WX    TMP DP  RH WIND       PRES   REMARKS
WAUSAU         LGT SNOW  17  13  84 NE7       29.39S VSB 3/4 WCI   8
MOSINEE        CLOUDY    18  16  93 NE8       29.40S FOG     WCI   7
MARSHFIELD     LGT SNOW  18  14  84 NE13      29.37F VSB 3/4 WCI   5
STEVENS POINT  CLOUDY    18  17  95 NE8       29.39F WCI   8
WAUPACA        FLURRIES  25  20  81 N5        29.39S WCI  20
WAUTOMA        FLURRIES  22  19  89 NE8       29.37F WCI  12
WISC RAPIDS    CLOUDY    20  15  81 NE7       29.40R WCI  11
CAMP DOUGLAS   CLOUDY    25  18  74 NE6       29.36R WCI  18
$$

WIZ011>013-019>022-031-037>040-048>050-131800-
NORTHEAST WISCONSIN

CITY           SKY/WX    TMP DP  RH WIND       PRES   REMARKS
ANTIGO         SNOW      17  14  89 E12       29.39F VSB 1/2 WCI   4
SHAWANO        LGT SNOW  25  22  89 NE8       29.42S WCI  16
OCONTO         CLOUDY    26  24  93 E12G18    29.45F VSB 1/2 WCI  16
STURGEON BAY   HVY SNOW  26  24  92 SE16G25   29.46F VSB 1/4 WCI  14
GREEN BAY      SNOW      29  27  92 E7        29.40F VSB 1/4 WCI  22
MANITOWOC      MIX PCPN  32  27  81 SE16      29.39F WCI  21
APPLETON       LGT SNOW  27  19  74 SE8       29.35F WCI  18
CLINTONVILLE   FLURRIES  27  21  80 E6        29.40  WCI  20
OSHKOSH        CLOUDY    27  20  75 SE8       29.35F WCI  19
$$

WIZ032>034-041-042-053>061-131800-
SOUTHWEST WISCONSIN

CITY           SKY/WX    TMP DP  RH WIND       PRES   REMARKS
LA CROSSE      CLOUDY    31  22  69 N8        29.38R WCI  23
SPARTA         CLOUDY    27  19  74 N7        29.38S WCI  19
VIROQUA        MOSUNNY   28  24  84 N7        29.32R WCI  21
BOSCOBEL       CLOUDY    33  24  69 W6        29.34R WCI  28
PRAIRIE DU CHI CLOUDY    37  26  63 NW20G28   29.34R WCI  27
PLATTEVILLE    CLOUDY    35  27  73 W13       29.30F WCI  26
$$

WIZ056-057-062-063-064-067-068-131800-
SOUTH CENTRAL WISCONSIN

CITY           SKY/WX    TMP DP  RH WIND       PRES   REMARKS
REEDSBURG      PTSUNNY   29  20  69 CALM      29.32S
BARABOO/DELLS  CLOUDY    29  20  67 CALM      29.31F
LONE ROCK      CLOUDY    31  23  72 NE3       29.31F
MINERAL POINT  CLOUDY    34  27  75 W8        29.28F WCI  27
MADISON        CLOUDY    30  21  69 S7        29.30F WCI  23
MIDDLETON      CLOUDY    32  23  69 S7        29.29F WCI  26
WATERTOWN      LGT SNOW  28  24  82 S5        29.33F WCI  23
MONROE         CLOUDY    32  23  69 SW13      29.28F WCI  22
JANESVILLE     CLOUDY    32  21  64 S12       29.33S WCI  23
$$

WIZ051-052-058>065-066-070>072-131800-
SOUTHEAST WISCONSIN

CITY           SKY/WX    TMP DP  RH WIND       PRES   REMARKS
MILWAUKEE      CLOUDY    32  21  64 S8        29.36F WCI  25
WAUKESHA       CLOUDY    28  18  64 S10       29.34F WCI  19
MILWAUKEE/TIMM CLOUDY    30  18  59 S6        29.37F WCI  24
RACINE         CLOUDY    32  19  58 S8G20     29.37F WCI  25
BURLINGTON       N/A    N/A N/A N/A MISG        N/A
KENOSHA        CLOUDY    32  19  58 S14G24    29.36F WCI  22
FOND DU LAC    MIX PCPN  27  18  69 SE9       29.35F WCI  18
SHEBOYGAN      CLOUDY    32  26  78 S12G22    29.37F WCI  23
WEST BEND      CLOUDY    28  19  69 SE5       29.34F WCI  23
JUNEAU         LGT SNOW  27  22  83 SE9       29.35F WCI  17
$$

LSZ147-162-131800-
LAKE SUPERIOR

STATION/POSITION TIME  TEMP    WIND        PRES    WAVE
                       AIR SEA DIR/SP/G            HT/PER
                 (UTC) (F)     (DEG/KT/KT) (MB)    (FT/S)
DEVILS ISLAND    1700   22      90/ 26/ 28 1003.5R
SAXON HARBOR     1640   17                 1001.0R
$$

LMZ867-665-643>646-131800-
LAKE MICHIGAN

STATION/POSITION TIME  TEMP    WIND        PRES    WAVE
                       AIR SEA DIR/SP/G            HT/PER
                 (UTC) (F)     (DEG/KT/KT) (MB)    (FT/S)
NORTHPORT PIER   1644   25     110/ 21     1000.0F
KEWAUNEE LAKESHO 1654   27     110/ 21/ 28  996.3F
SHEBOYGAN LAKESH 1700   34     170/ 24/ 26  995.0F
PORT WASHINGTON  1630   32     190/ 11/ 17  996.6F
MILWAUKEE LAKESH 1700   31     180/  9/ 11   N/A
KENOSHA   LAKESH 1700   31     190/ 11/ 18  994.6
$$

TC  - TEMPERATURE IN CELSIUS
VSB - VISIBILITY IN STATUTE MILES
WCI - WIND CHILL INDEX
HX  - HEAT INDEX




USA.gov is the U.S. government's official web portal to all federal, state and local government web resources and services.